Time,TemperatureF,DewpointF,PressureIn,WindDirection,WindDirectionDegrees,WindSpeedMPH,WindSpeedGustMPH,Humidity,HourlyPrecipIn,Conditions,Clouds,dailyrainin,SoftwareType,DateUTC
2013-03-07 00:04:00,38.1,28.0,29.93,WSW,256,3.0,7.0,66,0.00,,,0.00,weatherlink.com 1.10,2013-03-07 05:04:00,
2013-03-07 00:19:00,38.0,27.0,29.93,NNW,343,1.0,13.0,66,0.00,,,0.00,weatherlink.com 1.10,2013-03-07 05:19:00,
2013-03-07 00:34:00,37.9,27.0,29.93,East,97,6.0,15.0,66,0.00,,,0.00,weatherlink.com 1.10,2013-03-07 05:34:00,
2013-03-07 00:49:00,37.8,27.0,29.93,WNW,297,2.0,10.0,66,0.00,,,0.00,weatherlink.com 1.10,2013-03-07 05:49:00,
2013-03-07 01:04:00,37.7,27.0,29.93,ESE,105,3.0,9.0,66,0.00,,,0.00,weatherlink.com 1.10,2013-03-07 06:04:00,
2013-03-07 01:19:00,37.7,27.0,29.94,WNW,287,0.0,9.0,66,0.00,,,0.00,weatherlink.com 1.10,2013-03-07 06:19:00,
2013-03-07 01:34:00,37.7,27.0,29.94,SSE,153,0.0,15.0,66,0.00,,,0.00,weatherlink.com 1.10,2013-03-07 06:34:00,
2013-03-07 01:49:00,37.6,27.0,29.94,SE,143,4.0,11.0,66,0.00,,,0.00,weatherlink.com 1.10,2013-03-07 06:49:00,
2013-03-07 02:04:00,37.5,27.0,29.94,SE,128,5.0,18.0,66,0.00,,,0.00,weatherlink.com 1.10,2013-03-07 07:04:00,
2013-03-07 02:19:00,37.5,27.0,29.93,SE,139,2.0,13.0,67,0.00,,,0.00,weatherlink.com 1.10,2013-03-07 07:19:00,
2013-03-07 02:34:00,37.5,27.0,29.93,SSW,211,2.0,13.0,66,0.00,,,0.00,weatherlink.com 1.10,2013-03-07 07:34:00,
2013-03-07 02:49:00,37.3,27.0,29.93,ESE,114,0.0,11.0,67,0.00,,,0.00,weatherlink.com 1.10,2013-03-07 07:49:00,
2013-03-07 03:04:00,36.8,28.0,29.93,SW,228,2.0,10.0,71,0.00,,,0.00,weatherlink.com 1.10,2013-03-07 08:04:00,
2013-03-07 03:19:00,36.4,28.0,29.94,SW,217,3.0,9.0,71,0.00,,,0.00,weatherlink.com 1.10,2013-03-07 08:19:00,
2013-03-07 03:34:00,36.5,28.0,29.95,NNW,331,3.0,11.0,70,0.00,,,0.00,weatherlink.com 1.10,2013-03-07 08:34:00,
2013-03-07 03:49:00,36.6,27.0,29.95,WSW,248,0.0,9.0,68,0.00,,,0.00,weatherlink.com 1.10,2013-03-07 08:49:00,
2013-03-07 04:04:00,36.5,27.0,29.96,WSW,249,0.0,7.0,68,0.00,,,0.00,weatherlink.com 1.10,2013-03-07 09:04:00,
2013-03-07 04:20:00,36.4,27.0,29.96,SW,231,2.0,6.0,69,0.00,,,0.00,weatherlink.com 1.10,2013-03-07 09:20:00,
2013-03-07 04:34:00,36.2,27.0,29.97,NW,308,2.0,8.0,69,0.00,,,0.00,weatherlink.com 1.10,2013-03-07 09:34:00,
2013-03-07 04:49:00,36.0,27.0,29.97,SSE,149,2.0,6.0,70,0.00,,,0.00,weatherlink.com 1.10,2013-03-07 09:49:00,
2013-03-07 05:04:00,35.9,27.0,29.97,SE,132,3.0,12.0,71,0.00,,,0.00,weatherlink.com 1.10,2013-03-07 10:04:00,
2013-03-07 05:19:00,35.4,28.0,29.98,NNW,335,1.0,9.0,74,0.00,,,0.00,weatherlink.com 1.10,2013-03-07 10:19:00,
2013-03-07 05:34:00,35.1,28.0,29.99,NNE,15,2.0,6.0,74,0.00,,,0.00,weatherlink.com 1.10,2013-03-07 10:34:00,
2013-03-07 05:49:00,35.0,28.0,29.99,SW,233,3.0,7.0,74,0.00,,,0.00,weatherlink.com 1.10,2013-03-07 10:49:00,
2013-03-07 06:04:00,35.0,27.0,29.99,NNE,23,3.0,9.0,73,0.00,,,0.00,weatherlink.com 1.10,2013-03-07 11:04:00,
2013-03-07 06:20:00,35.1,27.0,29.99,NNW,341,2.0,8.0,73,0.00,,,0.00,weatherlink.com 1.10,2013-03-07 11:20:00,
2013-03-07 06:35:00,35.0,27.0,29.99,SSE,160,3.0,8.0,73,0.00,,,0.00,weatherlink.com 1.10,2013-03-07 11:35:00,
2013-03-07 07:20:00,35.2,27.0,30.00,SSE,160,6.0,10.0,71,0.00,,,0.00,weatherlink.com 1.10,2013-03-07 12:20:00,
2013-03-07 07:35:00,35.2,27.0,30.01,SSE,163,2.0,12.0,71,0.00,,,0.00,weatherlink.com 1.10,2013-03-07 12:35:00,
2013-03-07 07:50:00,35.3,27.0,30.02,NNE,33,2.0,8.0,73,0.00,,,0.00,weatherlink.com 1.10,2013-03-07 12:50:00,
2013-03-07 08:05:00,35.2,28.0,30.02,West,276,2.0,6.0,75,0.00,,,0.00,weatherlink.com 1.10,2013-03-07 13:05:00,
2013-03-07 08:20:00,34.9,28.0,30.02,SSW,203,1.0,9.0,77,0.00,,,0.00,weatherlink.com 1.10,2013-03-07 13:20:00,
2013-03-07 08:35:00,35.0,28.0,30.02,NNE,32,2.0,8.0,77,0.00,,,0.00,weatherlink.com 1.10,2013-03-07 13:35:00,
2013-03-07 08:50:00,34.8,29.0,30.03,North,5,1.0,8.0,79,0.00,,,0.00,weatherlink.com 1.10,2013-03-07 13:50:00,
2013-03-07 09:05:00,34.3,29.0,30.03,WNW,298,4.0,10.0,82,0.00,,,0.00,weatherlink.com 1.10,2013-03-07 14:05:00,
2013-03-07 09:20:00,33.9,30.0,30.03,NNE,33,4.0,7.0,85,0.00,,,0.00,weatherlink.com 1.10,2013-03-07 14:20:00,
2013-03-07 09:50:00,36.2,30.0,30.03,NNE,26,5.0,11.0,79,0.00,,,0.00,weatherlink.com 1.10,2013-03-07 14:50:00,
2013-03-07 10:05:00,37.0,30.0,30.03,ENE,59,4.0,9.0,76,0.00,,,0.00,weatherlink.com 1.10,2013-03-07 15:05:00,
2013-03-07 10:20:00,37.1,30.0,30.03,NE,47,1.0,8.0,74,0.00,,,0.00,weatherlink.com 1.10,2013-03-07 15:20:00,
2013-03-07 10:35:00,37.4,30.0,30.03,North,350,1.0,8.0,74,0.00,,,0.00,weatherlink.com 1.10,2013-03-07 15:35:00,
2013-03-07 10:50:00,37.3,30.0,30.04,NNE,18,6.0,11.0,75,0.00,,,0.00,weatherlink.com 1.10,2013-03-07 15:50:00,
2013-03-07 11:05:00,37.8,31.0,30.04,North,6,3.0,9.0,75,0.00,,,0.00,weatherlink.com 1.10,2013-03-07 16:05:00,
2013-03-07 11:20:00,38.1,31.0,30.04,SSE,167,2.0,6.0,74,0.00,,,0.00,weatherlink.com 1.10,2013-03-07 16:20:00,
2013-03-07 11:35:00,38.3,30.0,30.04,ENE,60,1.0,7.0,73,0.00,,,0.00,weatherlink.com 1.10,2013-03-07 16:35:00,
2013-03-07 11:50:00,38.0,31.0,30.04,NNE,16,7.0,10.0,75,0.00,,,0.00,weatherlink.com 1.10,2013-03-07 16:50:00,
2013-03-07 12:05:00,37.4,31.0,30.04,NNE,16,7.0,11.0,77,0.00,,,0.00,weatherlink.com 1.10,2013-03-07 17:05:00,
2013-03-07 12:20:00,36.9,31.0,30.04,NNE,17,5.0,8.0,80,0.00,,,0.00,weatherlink.com 1.10,2013-03-07 17:20:00,
2013-03-07 12:35:00,37.7,32.0,30.03,North,349,2.0,6.0,80,0.00,,,0.00,weatherlink.com 1.10,2013-03-07 17:35:00,
2013-03-07 12:50:00,37.3,32.0,30.04,West,280,4.0,10.0,80,0.00,,,0.00,weatherlink.com 1.10,2013-03-07 17:50:00,
2013-03-07 13:05:00,37.1,32.0,30.04,NNW,331,2.0,8.0,83,0.00,,,0.00,weatherlink.com 1.10,2013-03-07 18:05:00,
2013-03-07 13:20:00,36.8,33.0,30.03,East,97,0.0,6.0,85,0.00,,,0.00,weatherlink.com 1.10,2013-03-07 18:20:00,
2013-03-07 13:35:00,37.0,33.0,30.04,NNW,333,2.0,5.0,85,0.00,,,0.00,weatherlink.com 1.10,2013-03-07 18:35:00,
2013-03-07 13:50:00,37.2,34.0,30.03,NNW,347,2.0,5.0,87,0.01,,,0.01,weatherlink.com 1.10,2013-03-07 18:50:00,
2013-03-07 14:05:00,37.3,34.0,30.03,NNE,24,1.0,6.0,87,0.01,,,0.01,weatherlink.com 1.10,2013-03-07 19:05:00,
2013-03-07 14:20:00,38.0,35.0,30.04,NNE,18,1.0,4.0,87,0.01,,,0.01,weatherlink.com 1.10,2013-03-07 19:20:00,
2013-03-07 14:35:00,37.7,34.0,30.04,West,266,3.0,8.0,86,0.01,,,0.01,weatherlink.com 1.10,2013-03-07 19:35:00,
2013-03-07 14:50:00,37.5,34.0,30.05,NNW,335,2.0,10.0,86,0.01,,,0.02,weatherlink.com 1.10,2013-03-07 19:50:00,
2013-03-07 15:05:00,37.2,34.0,30.05,NNE,23,2.0,6.0,88,0.01,,,0.02,weatherlink.com 1.10,2013-03-07 20:05:00,
2013-03-07 15:20:00,36.9,34.0,30.05,NNE,28,2.0,5.0,89,0.02,,,0.03,weatherlink.com 1.10,2013-03-07 20:20:00,
2013-03-07 15:35:00,36.6,34.0,30.06,NNE,18,3.0,4.0,89,0.03,,,0.04,weatherlink.com 1.10,2013-03-07 20:35:00,
2013-03-07 15:50:00,36.6,34.0,30.06,NW,323,3.0,5.0,90,0.02,,,0.04,weatherlink.com 1.10,2013-03-07 20:50:00,
2013-03-07 16:05:00,36.4,34.0,30.07,NW,324,2.0,5.0,90,0.03,,,0.05,weatherlink.com 1.10,2013-03-07 21:05:00,
2013-03-07 16:20:00,36.0,34.0,30.07,North,349,1.0,4.0,91,0.03,,,0.06,weatherlink.com 1.10,2013-03-07 21:20:00,
2013-03-07 16:35:00,35.6,33.0,30.07,ENE,65,4.0,6.0,91,0.03,,,0.07,weatherlink.com 1.10,2013-03-07 21:35:00,
2013-03-07 16:51:00,35.6,33.0,30.07,NNE,22,5.0,6.0,91,0.03,,,0.07,weatherlink.com 1.10,2013-03-07 21:51:00,
2013-03-07 17:06:00,35.6,33.0,30.07,NW,318,0.0,6.0,91,0.03,,,0.08,weatherlink.com 1.10,2013-03-07 22:06:00,
2013-03-07 17:21:00,35.5,33.0,30.08,ENE,75,3.0,8.0,90,0.02,,,0.08,weatherlink.com 1.10,2013-03-07 22:21:00,
2013-03-07 17:36:00,35.4,33.0,30.08,North,354,8.0,10.0,89,0.01,,,0.08,weatherlink.com 1.10,2013-03-07 22:36:00,
2013-03-07 17:51:00,35.2,33.0,30.09,North,11,2.0,4.0,90,0.02,,,0.09,weatherlink.com 1.10,2013-03-07 22:51:00,
2013-03-07 18:06:00,34.8,32.0,30.09,NNE,23,3.0,5.0,90,0.01,,,0.09,weatherlink.com 1.10,2013-03-07 23:06:00,
2013-03-07 18:21:00,34.6,32.0,30.09,North,356,0.0,5.0,91,0.01,,,0.09,weatherlink.com 1.10,2013-03-07 23:21:00,
2013-03-07 18:36:00,34.3,32.0,30.09,NE,44,0.0,6.0,92,0.02,,,0.10,weatherlink.com 1.10,2013-03-07 23:36:00,
2013-03-07 18:51:00,34.2,32.0,30.09,NNE,32,4.0,6.0,91,0.02,,,0.11,weatherlink.com 1.10,2013-03-07 23:51:00,
2013-03-07 19:06:00,34.1,32.0,30.09,North,8,1.0,4.0,92,0.02,,,0.11,weatherlink.com 1.10,2013-03-08 00:06:00,
2013-03-07 19:21:00,34.1,32.0,30.09,NE,35,2.0,5.0,92,0.01,,,0.11,weatherlink.com 1.10,2013-03-08 00:21:00,
2013-03-07 19:36:00,34.0,32.0,30.09,West,278,1.0,5.0,92,0.01,,,0.11,weatherlink.com 1.10,2013-03-08 00:36:00,
2013-03-07 19:51:00,34.0,32.0,30.09,NNW,345,2.0,5.0,92,0.01,,,0.12,weatherlink.com 1.10,2013-03-08 00:51:00,
2013-03-07 20:06:00,34.2,32.0,30.09,NNE,22,1.0,5.0,92,0.01,,,0.12,weatherlink.com 1.10,2013-03-08 01:06:00,
2013-03-07 20:21:00,34.2,32.0,30.09,NNW,347,2.0,5.0,91,0.01,,,0.12,weatherlink.com 1.10,2013-03-08 01:21:00,
2013-03-07 20:36:00,34.2,32.0,30.08,North,9,1.0,4.0,91,0.01,,,0.12,weatherlink.com 1.10,2013-03-08 01:36:00,
2013-03-07 20:51:00,34.0,32.0,30.09,NNE,20,1.0,6.0,92,0.00,,,0.12,weatherlink.com 1.10,2013-03-08 01:51:00,
2013-03-07 21:06:00,33.9,32.0,30.08,North,5,0.0,3.0,92,0.00,,,0.12,weatherlink.com 1.10,2013-03-08 02:06:00,
2013-03-07 21:21:00,33.8,32.0,30.08,North,350,1.0,4.0,92,0.01,,,0.13,weatherlink.com 1.10,2013-03-08 02:21:00,
2013-03-07 21:36:00,33.7,32.0,30.08,WNW,284,0.0,4.0,92,0.01,,,0.13,weatherlink.com 1.10,2013-03-08 02:36:00,
2013-03-07 21:52:00,33.7,32.0,30.08,WNW,298,0.0,3.0,92,0.01,,,0.13,weatherlink.com 1.10,2013-03-08 02:52:00,
2013-03-07 22:06:00,33.5,32.0,30.07,North,351,0.0,3.0,92,0.02,,,0.14,weatherlink.com 1.10,2013-03-08 03:06:00,
2013-03-07 22:36:00,33.2,31.0,30.07,North,352,0.0,2.0,93,0.01,,,0.14,weatherlink.com 1.10,2013-03-08 03:36:00,
2013-03-07 23:06:00,32.8,31.0,30.07,NW,326,0.0,3.0,93,0.00,,,0.00,weatherlink.com 1.10,2013-03-08 04:06:00,
2013-03-07 23:21:00,32.6,31.0,30.07,NNE,15,0.0,1.0,93,0.00,,,0.00,weatherlink.com 1.10,2013-03-08 04:21:00,
2013-03-07 23:36:00,32.5,31.0,30.07,NNE,23,0.0,1.0,94,0.00,,,0.00,weatherlink.com 1.10,2013-03-08 04:36:00,
2013-03-07 23:51:00,32.5,31.0,30.07,North,350,0.0,2.0,94,0.00,,,0.00,weatherlink.com 1.10,2013-03-08 04:51:00,